Wind_Speed
13 13 12 10 8 6 5 7 7 7 8 9 8 7 6 6 6 6 10 10 11 11 17 15 10 10 7 5 3 2 4 5 3 4 2 2 2 2 1 1 1 1 3 5 8
13 13 13 12 11 8 6 6 7 7 8 8 8 7 6 5 5 13 14 13 12 20 19 20 13 14 6 6 4 6 5 5 0 1 1 3 1 2 2 1 2 3 4 4 8
12 12 12 12 12 10 7 6 7 8 7 7 8 7 7 5 3 5 3 19 18 21 16 14 16 11 7 6 6 5 4 3 1 4 5 3 1 2 3 3 6 10 8 2 4
15 14 14 14 13 11 7 5 6 8 8 8 8 8 9 5 3 1 10 12 19 21 17 14 12 10 8 9 8 5 6 5 1 2 1 2 4 5 5 12 13 12 12 11 9
16 17 17 16 15 13 9 5 6 9 9 9 10 11 7 4 6 8 4 21 24 21 18 11 14 11 11 8 6 9 6 5 7 7 6 2 7 4 15 16 21 23 25 22 20
17 17 17 16 15 14 11 5 7 9 10 10 12 13 3 6 3 3 16 20 17 14 15 12 10 8 6 5 10 4 6 7 6 6 4 5 5 1 16 14 22 23 23 21 23
17 17 16 15 14 12 10 6 6 8 11 12 14 9 3 4 2 8 15 11 17 8 7 10 8 9 8 6 3 3 5 6 5 3 5 8 12 12 10 14 20 20 19 20 25
18 17 15 14 13 10 6 3 5 8 11 13 13 4 4 2 4 11 10 9 15 5 4 6 6 4 2 5 3 4 3 4 3 2 2 7 11 12 13 14 19 19 18 19 23
18 17 16 13 11 7 4 2 6 9 12 12 7 3 2 2 5 9 9 9 10 6 5 6 2 2 4 5 4 3 3 4 3 1 4 2 13 10 12 14 17 17 18 18 20
19 18 16 13 9 2 6 11 14 13 10 6 1 3 3 3 5 11 9 14 4 9 6 4 2 6 6 8 6 6 5 3 2 3 3 11 12 10 13 16 16 17 18 19 20
19 18 16 14 9 6 14 7 4 3 5 4 3 1 4 5 6 4 8 7 6 5 7 4 8 11 13 13 2 4 2 4 2 3 4 6 11 12 12 16 17 18 18 18 19
20 19 17 14 9 7 12 4 2 2 3 5 1 2 1 3 4 5 9 7 7 8 7 5 14 9 4 8 8 7 8 11 4 4 8 8 10 12 14 17 17 17 18 18 19
21 19 17 13 7 7 11 5 3 2 2 2 3 3 3 5 3 11 9 5 4 7 12 10 2 5 8 7 10 10 12 9 6 5 3 5 8 6 11 15 15 17 15 17 18
21 18 14 11 3 7 5 9 5 4 3 5 4 3 4 4 3 1 3 2 3 9 8 7 4 5 7 6 10 10 11 11 7 6 5 10 3 6 9 12 15 16 16 16 18
20 12 10 7 2 4 4 9 7 2 3 4 4 4 3 4 9 3 4 1 6 6 6 3 6 7 6 5 11 0 3 7 5 7 3 10 5 6 9 6 12 14 15 15 16
14 5 2 5 4 4 8 10 4 4 6 4 3 5 5 2 3 3 2 6 2 3 1 1 1 1 1 2 7 9 6 5 3 2 6 11 12 6 1 5 8 11 13 15 16
3 1 2 4 3 5 10 3 4 5 1 4 3 4 6 3 4 3 3 4 1 5 7 3 2 1 1 4 4 6 7 3 4 5 5 1 8 8 7 8 8 9 12 14 15
7 5 3 1 4 8 5 2 5 2 1 1 3 7 4 2 3 3 5 4 6 1 2 5 4 0 4 2 1 10 8 4 5 4 2 4 5 6 8 8 8 9 9 12 14
4 3 3 5 8 10 2 6 1 1 1 4 3 4 3 3 3 4 3 3 4 5 2 3 4 2 4 3 3 5 5 2 3 1 4 4 5 5 6 5 7 8 10 12 13
2 1 5 2 9 3 2 4 2 3 2 1 5 2 5 4 5 4 5 2 3 6 3 2 2 3 4 1 8 3 2 3 3 4 8 5 5 5 7 3 5 8 10 11 13
1 2 10 7 4 2 2 4 4 5 2 3 2 3 4 3 3 3 4 4 4 3 5 1 2 3 1 8 5 3 1 2 2 2 5 6 4 3 5 4 4 6 8 10 13
1 2 9 5 3 3 3 3 3 4 7 5 4 5 3 3 4 3 4 5 6 2 3 3 2 2 3 6 6 3 3 2 4 4 0 3 3 4 5 4 4 4 7 9 11
2 1 6 1 3 3 3 4 5 3 5 4 3 5 4 4 4 4 5 2 8 3 3 1 0 3 2 2 2 4 4 2 3 2 4 4 2 3 3 3 4 5 7 8 10
1 2 4 4 2 5 6 3 4 5 4 5 4 1 3 3 7 5 4 3 4 4 8 1 2 2 2 4 3 3 2 3 2 1 2 4 4 5 4 6 7 7 8 7 8
4 2 1 3 5 7 4 3 5 3 3 5 4 7 3 4 3 4 3 4 6 5 4 2 3 1 2 3 3 3 2 0 4 1 5 3 2 4 2 5 8 8 8 7 9
2 2 3 3 2 5 5 2 5 5 4 3 6 7 7 4 4 4 4 2 2 5 3 2 3 2 2 5 3 3 2 3 3 2 2 1 1 1 5 5 7 7 6 6 9
5 2 1 5 2 1 2 3 5 7 6 5 8 8 11 8 6 6 8 8 4 2 2 1 4 2 2 4 4 3 2 2 2 3 3 3 4 5 6 9 10 9 5 4 10
Wind_Direction
357 356 354 346 329 306 281 249 234 241 243 246 239 234 225 225 223 216 234 222 216 183 167 153 151 149 159 157 154 179 232 222 218 204 62 114 217 140 27 174 190 172 340 73 129
354 355 352 346 339 317 293 261 239 231 234 238 235 223 205 207 226 246 241 223 205 180 163 165 160 157 166 176 170 216 231 204 32 262 6 33 328 360 247 142 196 233 142 117 149
354 354 354 352 349 336 303 262 239 224 230 226 223 204 182 172 257 238 194 217 194 181 175 176 157 165 177 180 182 180 231 200 209 239 285 324 301 348 329 314 356 350 13 133 177
353 354 354 359 354 343 320 271 237 224 216 210 201 184 166 159 235 83 282 194 183 174 158 155 167 175 186 194 182 213 233 238 253 157 185 298 325 322 350 360 2 25 33 33 36
352 353 351 353 355 346 336 294 235 217 203 196 184 168 155 206 257 334 125 156 162 162 167 169 177 182 192 195 162 227 238 219 242 247 255 276 275 6 48 50 55 56 51 45 41
350 350 348 349 349 346 335 303 237 209 190 183 173 169 195 226 288 124 143 156 160 161 168 174 194 191 165 184 205 175 230 252 261 249 210 209 64 162 39 48 56 52 51 45 40
345 344 343 343 342 344 333 300 228 205 178 173 171 168 205 248 79 150 157 163 168 162 168 187 179 188 152 163 170 180 258 250 227 225 191 166 70 58 24 48 54 49 46 43 35
339 338 337 337 338 340 328 293 211 188 164 165 167 180 248 224 183 162 155 142 168 147 197 179 172 153 228 121 140 217 242 230 113 152 86 206 121 38 26 49 51 45 39 36 33
335 333 332 333 334 344 5 83 147 149 151 152 154 216 231 151 157 176 169 146 140 112 96 131 148 141 155 203 213 203 221 200 157 92 132 244 119 55 40 52 51 42 37 32 27
332 329 327 328 330 32 105 109 116 116 129 132 101 220 189 175 146 154 162 145 130 131 114 154 163 201 191 197 226 191 199 208 187 128 153 106 106 67 48 57 51 43 36 32 28
330 326 325 323 321 156 132 126 153 149 218 215 184 335 119 106 113 136 148 121 127 165 178 155 210 214 209 216 212 121 170 226 158 145 316 50 97 58 49 52 49 43 37 32 27
327 324 320 316 308 200 178 220 252 61 189 223 166 273 213 180 116 148 164 164 167 184 145 172 235 229 199 195 209 223 244 247 261 253 218 142 99 75 60 61 53 44 36 27 20
325 322 318 315 299 179 197 218 199 159 257 162 190 183 175 174 103 169 182 147 180 170 195 217 60 148 177 173 203 225 232 231 244 149 242 215 170 147 82 67 56 48 41 34 25
323 320 317 312 189 178 194 209 183 168 249 159 192 160 132 158 105 61 179 169 153 205 181 241 145 159 170 204 205 241 221 238 215 202 242 204 235 141 132 76 48 38 33 27 23
322 316 320 215 174 186 159 161 159 168 247 124 126 135 124 163 123 66 31 171 179 166 185 146 162 169 193 219 194 248 124 179 189 209 231 199 256 101 176 69 37 35 31 28 24
321 311 304 158 154 152 147 146 145 189 233 133 120 154 140 57 72 111 89 46 53 150 230 240 359 261 5 103 176 147 112 98 110 192 248 224 220 134 90 15 35 33 31 24 19
274 105 138 153 154 154 152 168 165 226 109 147 137 146 116 92 87 57 53 54 196 180 203 171 153 93 22 182 180 200 181 198 205 196 246 101 212 64 95 67 54 35 27 22 19
149 103 124 23 218 161 157 179 200 78 103 79 118 105 128 140 72 95 123 124 52 317 146 191 174 153 3 11 234 195 223 228 244 212 151 154 230 116 106 85 68 50 35 24 19
146 119 49 342 157 163 208 208 48 104 63 158 125 156 130 142 126 129 84 112 47 5 260 185 168 334 51 339 314 150 204 360 285 202 259 154 110 153 137 90 57 46 30 25 18
157 127 22 105 150 159 197 105 100 33 350 216 199 295 160 143 158 150 165 30 115 26 314 114 186 29 358 305 62 1 39 181 207 247 245 202 170 118 168 93 43 26 25 21 17
219 165 4 132 132 69 141 97 113 49 348 13 122 115 84 120 88 105 104 65 18 47 51 36 286 111 247 18 355 352 111 48 334 290 258 271 117 61 108 68 27 24 26 8 4
170 163 0 168 70 45 84 60 53 18 28 49 74 66 80 66 86 97 118 45 358 351 51 25 47 77 70 93 52 46 52 360 248 185 317 315 144 80 88 50 22 14 6 3 5
110 59 2 114 145 110 111 80 61 42 39 41 76 40 55 86 110 98 93 62 23 59 82 138 155 138 174 211 175 57 24 36 80 38 228 260 111 125 68 48 43 357 359 355 1
105 131 40 55 30 117 131 103 109 43 67 55 75 99 103 78 37 122 110 57 23 47 44 108 83 323 326 63 76 130 59 31 34 220 271 254 145 184 16 356 349 344 346 343 353
17 83 345 62 47 90 84 94 119 100 69 39 77 56 64 110 90 100 98 119 58 14 51 64 124 112 116 52 80 94 111 215 225 49 246 65 57 139 343 300 310 316 326 330 345
54 122 65 74 47 69 19 75 119 113 19 53 113 74 52 92 45 146 129 100 84 58 76 27 124 120 115 56 115 120 72 99 98 117 138 156 141 79 302 290 296 319 312 319 339
20 16 86 23 67 77 41 130 123 132 56 57 122 108 89 86 76 73 72 74 87 92 106 93 137 158 158 132 139 185 30 7 86 69 344 270 61 346 336 332 325 321 317 331 333
Height
783 780 776 773 771 769 766 768 769 771 772 774 774 775 776 779 779 780 775 774 774 776 778 783 786 788 791 791 792 792 793 790 788 791 783 781 781 779 779 778 780 780 780 787 789
783 779 775 773 768 766 765 765 766 768 770 772 772 774 774 778 779 775 766 770 773 773 778 780 782 786 787 789 790 788 792 787 785 785 784 782 782 779 780 780 780 780 785 788 789
781 778 775 770 767 764 763 763 763 765 767 769 770 772 774 776 777 763 762 766 770 772 777 780 781 783 788 788 788 789 788 785 784 785 786 784 782 781 782 783 780 781 782 789 791
778 774 771 768 766 763 762 760 761 762 765 767 769 772 773 775 771 761 761 762 766 771 776 779 782 784 787 788 785 790 786 787 784 786 786 786 784 785 787 790 792 793 793 794 796
774 769 767 764 762 762 760 759 759 760 762 765 768 770 773 773 764 761 757 761 766 771 774 775 778 780 784 781 786 788 784 786 783 785 787 789 786 790 800 804 803 804 804 807 810
771 768 766 763 761 759 758 757 759 759 761 764 767 770 771 769 762 761 762 764 767 771 774 775 775 777 779 781 783 781 785 782 781 781 784 785 790 787 809 812 809 811 816 820 820
770 768 765 763 761 758 757 757 757 758 760 763 766 768 768 761 760 762 764 766 768 771 774 776 776 776 776 783 782 784 785 777 779 780 782 782 798 818 818 820 818 821 825 827 830
770 767 764 762 760 758 757 756 756 757 760 763 765 767 761 760 761 763 764 766 769 772 774 776 777 776 777 780 783 783 783 776 778 780 783 784 804 827 825 823 826 830 833 834 837
770 766 763 761 759 758 756 756 756 758 761 763 766 765 759 760 761 762 764 766 770 773 775 777 778 778 781 780 782 783 772 777 778 779 780 781 805 831 833 832 835 838 841 843 844
768 764 761 759 758 757 756 758 760 761 764 765 765 767 761 757 758 761 764 767 770 773 776 777 779 777 779 778 773 772 779 780 777 780 778 782 816 832 838 838 843 847 849 850 851
764 762 758 756 756 756 757 760 763 764 762 752 753 754 754 758 759 762 764 767 769 771 774 778 778 774 770 769 773 775 775 776 778 779 779 782 815 835 843 846 850 856 859 859 859
761 758 755 753 752 753 755 753 750 751 751 755 755 755 755 756 759 762 764 765 768 771 777 780 774 763 771 776 778 778 777 775 778 782 782 787 827 844 850 857 862 864 866 866 864
757 754 751 750 749 750 750 749 748 749 748 753 753 753 754 756 757 760 763 764 767 775 773 768 770 772 773 780 781 778 776 772 775 784 784 782 807 834 855 858 862 868 873 873 872
753 750 748 746 750 746 747 747 748 749 747 752 752 751 753 752 759 761 762 763 769 768 774 771 772 774 775 774 773 773 769 771 779 782 777 778 765 821 847 855 864 870 874 877 877
749 746 745 744 743 745 745 745 747 749 754 753 752 751 752 753 758 763 764 762 765 769 772 767 773 776 775 770 770 769 775 776 779 778 780 778 775 830 834 841 867 876 879 882 881
744 743 742 743 743 743 743 745 747 749 754 751 750 750 752 757 760 763 763 764 768 768 770 767 772 769 767 773 772 776 776 780 782 779 781 759 764 808 835 871 873 879 883 884 885
741 741 741 742 743 743 744 745 745 743 747 753 752 751 755 762 765 767 772 774 770 771 767 770 771 772 772 772 776 775 771 774 781 786 768 778 776 843 876 883 885 887 888 889 889
740 741 741 742 741 742 744 743 742 749 750 757 755 756 756 764 771 774 777 777 786 781 770 762 773 775 777 773 768 770 765 764 771 770 760 778 767 854 881 885 887 892 893 893 891
741 741 741 740 740 742 743 739 740 752 761 756 756 752 762 766 765 772 777 781 790 790 771 771 770 781 781 781 778 774 773 773 769 774 771 765 863 875 879 883 888 891 893 894 894
742 742 742 740 741 743 740 751 763 770 769 764 748 760 754 764 762 767 777 795 794 796 792 788 771 787 785 782 780 777 784 774 772 775 766 757 785 822 869 880 888 891 896 897 898
741 739 743 741 743 741 742 758 769 775 772 765 762 765 770 767 770 776 786 804 802 800 795 797 788 785 787 801 797 784 782 785 782 783 762 754 787 868 879 889 892 897 900 901 899
741 737 743 742 745 757 758 768 774 779 777 776 776 775 775 784 782 786 794 804 810 807 803 809 803 790 814 822 818 817 816 807 779 779 801 795 811 890 892 896 897 901 903 904 903
739 743 743 742 741 762 775 780 784 780 787 783 786 788 789 793 790 795 804 817 814 810 812 813 810 801 806 816 818 827 839 833 825 825 810 790 818 897 900 901 904 904 905 908 907
743 738 748 752 764 760 769 778 784 789 792 792 794 792 792 797 799 804 811 819 819 817 818 814 819 817 793 816 823 832 845 846 839 830 817 813 874 899 904 905 907 907 910 911 910
750 764 768 760 766 767 769 777 782 786 793 793 795 798 796 799 805 811 816 820 822 824 824 822 829 833 833 831 835 853 853 856 850 871 842 876 880 907 916 916 914 913 911 910 910
755 759 770 774 777 772 777 787 786 797 795 797 794 804 802 804 809 812 815 819 822 827 828 830 836 835 843 845 845 861 873 869 873 890 895 904 895 919 918 917 911 912 913 912 911
767 768 763 781 778 773 787 787 791 794 804 803 803 804 809 818 818 821 823 827 829 829 831 830 836 841 838 848 851 855 885 878 883 894 896 869 909 915 912 912 912 912 914 913 912